[[{"header":{"parameterUnit":"m.s-1","parameterCategory":2,"la1":30.2991,"la2":30.254,"lo1":-89.0895,"lo2":-89.0444,"dy":0.0017,"dx":0.0017,"nx":28,"ny":28,"refTime":"2025-12-15T09:00:00:Z","depth":"0","parameterNumber":2,"parameterNumberName":"U-component_of_CURRENTS"},"data":[0,0,0,0,0,0,0,0,0,0,0,0,0,0,0,0,0,0,0,0,0,0,0,0,0,0,0,0,0,0,0,0,0,0,0,0,0,0,0,0,0,0,0,0,0,0,0,0,0,0,0,0,0,0,0,0,0,0,0.1375,0.1376,0,0.1372,0.1371,0.1371,0.135,0.1349,0.1349,0.1349,0.1296,0.1295,0.1294,0,0,0,0,0,0,0,0,0,0,0,0,0,0.1316,0.1317,0.1375,0.1376,0.1376,0.1372,0.1371,0.1371,0.135,0.1349,0.1349,0.1349,0.1297,0.1295,0.1293,0,0,0,0,0,0,0,0,0,0,0,0,0,0.1326,0.1318,0.1375,0.1368,0.1368,0.1372,0.1371,0.1371,0.135,0.1349,0.1349,0.1349,0.1297,0.1295,0.1293,0.1285,0,0,0.1287,0.1287,0,0,0,0,0,0,0,0,0.1326,0.1328,0.1369,0.1369,0.1368,0.1365,0.1331,0.1341,0.135,0.1352,0.1349,0.1349,0.1317,0.1314,0.1308,0.1283,0.1281,0.1287,0.1286,0.1285,0.1285,0,0,0,0,0,0,0,0.1325,0.1328,0.137,0.1369,0.1369,0.1349,0.135,0.1333,0.1332,0.1352,0.1351,0.1358,0.1316,0.131,0.1307,0.128,0.1287,0.1286,0.1284,0.1284,0.1276,0.1277,0,0,0,0,0,0,0.1337,0.1328,0.137,0.137,0.1351,0.1351,0.1352,0.1363,0.1333,0.133,0.1358,0.1357,0.1314,0.1309,0.1305,0.1329,0.1285,0.1283,0.1282,0.1275,0.1276,0.1277,0,0,0,0,0,0,0.1336,0.1341,0.137,0.1351,0.1354,0.1353,0.1364,0.1363,0.1365,0.1339,0.1334,0.1363,0.1313,0.1307,0.1302,0.1326,0.1283,0.1281,0.1274,0.1276,0.1277,0.1356,0,0,0,0,0,0,0.1334,0.1341,0.1347,0.1353,0.1356,0.1385,0.1365,0.1363,0.137,0.1369,0.1342,0.1336,0.1313,0.1305,0.13,0.1322,0.1279,0.1273,0.1275,0.1276,0.1352,0.136,0.1366,0,0,0,0,0,0.1332,0.1343,0.1348,0.1353,0.1367,0.1386,0.1386,0.138,0.1371,0.1379,0.1361,0.1337,0.1313,0.1304,0.1298,0.132,0.1272,0.1274,0.1276,0.1349,0.1358,0.1366,0,0,0,0,0,0,0.1313,0.1343,0.1348,0.1365,0.1382,0.1384,0.1388,0.1388,0.1379,0.1375,0.1346,0.134,0.1344,0.1321,0.1312,0.1324,0.129,0.1291,0.1347,0.1356,0.1363,0.137,0.1278,0,0,0,0,0,0.1316,0.1336,0.1359,0.1373,0.1384,0.1389,0.1393,0.1396,0.1393,0.1389,0.1373,0.1355,0.1347,0.1342,0.1327,0.1332,0.1338,0.1343,0.135,0.1357,0.1358,0.1391,0.1402,0.1285,0.1285,0.1285,0,0,0.131,0.1331,0.1339,0.1371,0.1379,0.14,0.139,0.1407,0.1422,0.1384,0.1391,0.1378,0.1354,0.1362,0.1362,0.1346,0.1399,0.1359,0.1365,0.1363,0.1395,0.1406,0.1417,0.1286,0.1286,0.1286,0,0,0.1312,0.1331,0.135,0.1372,0.1401,0.1409,0.142,0.1435,0.1439,0.1449,0.1429,0.1435,0.1414,0.1412,0.1405,0.1442,0.1436,0.1438,0.1481,0.1514,0.1524,0.1533,0.1584,0.1597,0.1443,0.1443,0.1443,0,0.1301,0.1334,0.1357,0.1384,0.1402,0.1418,0.1442,0.1453,0.1462,0.1472,0.146,0.1459,0.144,0.146,0.1474,0.146,0.1482,0.1452,0.1525,0.1533,0.1541,0.1591,0.1605,0.1447,0.1446,0.1446,0.1446,0,0.1324,0.135,0.1364,0.1407,0.143,0.1453,0.1482,0.15,0.1508,0.1519,0.1543,0.1529,0.153,0.1532,0.1512,0.156,0.1562,0.1532,0.1506,0.1558,0.1608,0.162,0.1453,0.1451,0.145,0.1449,0,0,0.1297,0.1365,0.137,0.1394,0.1445,0.1464,0.1501,0.1539,0.1563,0.158,0.1613,0.1613,0.1616,0.1608,0.1597,0.1625,0.171,0.1607,0.1607,0.1666,0.1806,0.1871,0.1891,0.1696,0.1698,0.17,0.1829,0,0.1306,0.1356,0.1391,0.1434,0.1462,0.1497,0.1531,0.1568,0.1594,0.1631,0.1646,0.1665,0.1643,0.1651,0.1681,0.1694,0.1741,0.1678,0.174,0.1742,0.1799,0.1906,0.1913,0.2035,0.1841,0.1843,0.1845,0,0.1316,0.1351,0.1393,0.1454,0.1469,0.1495,0.1553,0.1586,0.1648,0.167,0.1708,0.172,0.1771,0.1738,0.1815,0.1779,0.1804,0.1817,0.1821,0.1859,0.183,0.1944,0.2064,0.2019,0.1863,0.1862,0.186,0,0.1287,0.1351,0.1382,0.1404,0.1473,0.1496,0.1532,0.1593,0.1629,0.1698,0.1736,0.179,0.1826,0.1863,0.1909,0.1865,0.2005,0.1941,0.203,0.2034,0.204,0.2043,0.2127,0.2007,0.2006,0.2006,0.2006,0,0.1285,0.131,0.1369,0.1387,0.1421,0.1479,0.1519,0.1567,0.1643,0.1695,0.1752,0.1812,0.1859,0.1942,0.1959,0.2066,0.2053,0.2073,0.2084,0.2071,0.2075,0.2033,0.1995,0.2011,0.201,0.2009,0.2008,0,0.125,0.1292,0.1326,0.139,0.1408,0.1431,0.1505,0.1542,0.1621,0.1697,0.1726,0.185,0.1976,0.2047,0.2133,0.2147,0.2187,0.2255,0.2257,0.2266,0.2286,0.2252,0.2248,0.2161,0.2371,0.2374,0.2376,0,0.1238,0.1252,0.1307,0.1323,0.135,0.1391,0.1425,0.1513,0.156,0.1719,0.176,0.1924,0.2053,0.225,0.2324,0.2432,0.2304,0.2466,0.2374,0.2333,0.2301,0.2155,0.2068,0.242,0.2422,0.2424,0.2426,0,0.1209,0.1223,0.1251,0.1282,0.1312,0.1349,0.1407,0.1446,0.1563,0.166,0.1823,0.1955,0.2195,0.235,0.2512,0.2552,0.2379,0.2509,0.2456,0.2363,0.2217,0.2123,0.2294,0.2443,0.2441,0.244,0.2439,0.2438,0.1174,0.1181,0.1214,0.1242,0.1275,0.1313,0.1335,0.142,0.152,0.1674,0.1826,0.2028,0.2298,0.2558,0.2581,0.2647,0.2523,0.2586,0.2558,0.2419,0.2309,0.2544,0.2703,0.2703,0.2703,0.2703,0.2703,0,0.1133,0.1153,0.1175,0.1211,0.1231,0.1265,0.1328,0.1359,0.1464,0.1657,0.1826,0.2157,0.2388,0.2558,0.2756,0.2708,0.2517,0.2632,0.2409,0.2321,0.2552,0.2529,0.2669,0.2669,0.2669,0.2669,0.267,0.267,0.1114,0.1123,0.1142,0.1162,0.1186,0.1203,0.1231,0.1297,0.1418,0.1647,0.1845,0.2038,0.241,0.2746,0.2813,0.2738,0.2471,0.243,0.2309,0.2485,0.2476,0.2466,0.2435,0.2554,0.2554,0.1987,0.1984,0.1981]},{"header":{"parameterUnit":"m.s-1","parameterCategory":2,"la1":30.2991,"la2":30.254,"lo1":-89.0895,"lo2":-89.0444,"dy":0.0017,"dx":0.0017,"nx":28,"ny":28,"refTime":"2025-12-15T09:00:00:Z","depth":"0","parameterNumber":3,"parameterNumberName":"V-component_of_CURRENTS"},"data":[0,0,0,0,0,0,0,0,0,0,0,0,0,0,0,0,0,0,0,0,0,0,0,0,0,0,0,0,0,0,0,0,0,0,0,0,0,0,0,0,0,0,0,0,0,0,0,0,0,0,0,0,0,0,0,0,0,0,-0.0391,-0.0392,0,-0.0409,-0.0409,-0.0409,-0.0421,-0.0421,-0.0422,-0.0422,-0.0442,-0.0443,-0.0443,0,0,0,0,0,0,0,0,0,0,0,0,0,-0.0352,-0.0353,-0.0391,-0.0392,-0.0392,-0.0409,-0.0409,-0.0409,-0.0421,-0.0421,-0.0422,-0.0422,-0.0442,-0.0443,-0.0443,0,0,0,0,0,0,0,0,0,0,0,0,0,-0.0368,-0.0353,-0.0391,-0.0401,-0.0402,-0.0409,-0.0409,-0.0409,-0.0421,-0.0421,-0.0422,-0.0422,-0.0442,-0.0443,-0.0443,-0.044,0,0,-0.0445,-0.0445,0,0,0,0,0,0,0,0,-0.0367,-0.037,-0.0399,-0.04,-0.0402,-0.0414,-0.0402,-0.042,-0.0421,-0.0413,-0.0422,-0.0422,-0.0434,-0.0435,-0.0436,-0.0441,-0.0442,-0.0445,-0.0445,-0.0445,-0.0445,0,0,0,0,0,0,0,-0.0366,-0.0369,-0.0397,-0.04,-0.0401,-0.0399,-0.0401,-0.0406,-0.042,-0.0413,-0.0415,-0.0418,-0.0434,-0.0435,-0.0436,-0.0442,-0.0445,-0.0445,-0.0446,-0.0446,-0.0463,-0.0463,0,0,0,0,0,0,-0.0367,-0.0368,-0.0397,-0.0398,-0.0386,-0.0399,-0.0402,-0.0409,-0.042,-0.0423,-0.0418,-0.0419,-0.0434,-0.0436,-0.0437,-0.0439,-0.0445,-0.0446,-0.0446,-0.0463,-0.0463,-0.0463,0,0,0,0,0,0,-0.0366,-0.037,-0.0396,-0.0384,-0.0387,-0.04,-0.0407,-0.0409,-0.0412,-0.0424,-0.0426,-0.0419,-0.0434,-0.0436,-0.0443,-0.044,-0.0446,-0.0446,-0.0463,-0.0463,-0.0463,-0.044,0,0,0,0,0,0,-0.0365,-0.0369,-0.0369,-0.0384,-0.0388,-0.0395,-0.0407,-0.0409,-0.0414,-0.0415,-0.0426,-0.0428,-0.0435,-0.0442,-0.0444,-0.0441,-0.0447,-0.0463,-0.0463,-0.0463,-0.0441,-0.044,-0.0439,0,0,0,0,0,-0.0364,-0.0356,-0.0369,-0.0372,-0.0389,-0.0394,-0.0395,-0.0405,-0.0414,-0.041,-0.0423,-0.0428,-0.0445,-0.0443,-0.0445,-0.0441,-0.0463,-0.0463,-0.0463,-0.0441,-0.044,-0.0439,0,0,0,0,0,0,-0.0328,-0.0358,-0.0372,-0.0372,-0.0383,-0.0397,-0.0391,-0.0404,-0.0411,-0.0412,-0.0427,-0.043,-0.0436,-0.0443,-0.044,-0.0449,-0.0456,-0.0456,-0.0438,-0.0437,-0.0436,-0.042,-0.0447,0,0,0,0,0,-0.0325,-0.0333,-0.0357,-0.0355,-0.0361,-0.0378,-0.0381,-0.039,-0.0401,-0.0404,-0.0414,-0.0427,-0.0438,-0.0441,-0.045,-0.0451,-0.0463,-0.0452,-0.0451,-0.045,-0.0439,-0.0467,-0.0467,-0.0464,-0.0464,-0.0464,0,0,-0.0309,-0.0327,-0.033,-0.0349,-0.0358,-0.0357,-0.038,-0.0381,-0.038,-0.0405,-0.0403,-0.0422,-0.0439,-0.0442,-0.0446,-0.0447,-0.0457,-0.045,-0.0449,-0.0439,-0.0467,-0.0467,-0.0467,-0.0465,-0.0465,-0.0465,0,0,-0.0278,-0.0299,-0.0295,-0.0306,-0.0324,-0.0336,-0.0338,-0.0356,-0.0363,-0.0368,-0.039,-0.0407,-0.0417,-0.043,-0.0439,-0.0437,-0.0452,-0.0443,-0.042,-0.0447,-0.0448,-0.0448,-0.0461,-0.0463,-0.044,-0.044,-0.044,0,-0.0256,-0.026,-0.0291,-0.0289,-0.0291,-0.0326,-0.0315,-0.0327,-0.0345,-0.0349,-0.0363,-0.0392,-0.041,-0.0419,-0.0421,-0.0433,-0.0447,-0.0423,-0.0445,-0.0446,-0.0447,-0.046,-0.0462,-0.0439,-0.0439,-0.0439,-0.0439,0,-0.0226,-0.0228,-0.0223,-0.0238,-0.0244,-0.0239,-0.0266,-0.0272,-0.0291,-0.0308,-0.0324,-0.0355,-0.0372,-0.0386,-0.0402,-0.0417,-0.0425,-0.0443,-0.0446,-0.0445,-0.046,-0.0462,-0.0437,-0.0437,-0.0438,-0.0438,0,0,-0.0178,-0.0198,-0.0196,-0.0193,-0.0217,-0.0215,-0.0218,-0.0229,-0.0225,-0.026,-0.0258,-0.0297,-0.0324,-0.0335,-0.0366,-0.0391,-0.0415,-0.0416,-0.0418,-0.0423,-0.0466,-0.0455,-0.0457,-0.044,-0.0441,-0.0441,-0.0472,0,-0.0142,-0.0126,-0.0148,-0.0126,-0.0119,-0.0151,-0.0147,-0.0165,-0.0187,-0.0195,-0.0244,-0.0255,-0.0302,-0.031,-0.0346,-0.0394,-0.0421,-0.0404,-0.047,-0.0471,-0.0458,-0.0459,-0.0444,-0.047,-0.0475,-0.0476,-0.0476,0,-0.0105,-0.01,-0.0075,-0.0073,-0.0071,-0.0065,-0.0066,-0.0069,-0.01,-0.0118,-0.0152,-0.0189,-0.0231,-0.0271,-0.0356,-0.0343,-0.04,-0.0442,-0.0445,-0.0442,-0.0465,-0.0473,-0.0474,-0.0631,-0.048,-0.048,-0.0479,0,-0.0056,-0.0047,-0.0024,-0.0024,-0.0029,-0.0021,-0.0024,-0.0045,-0.0037,-0.007,-0.0065,-0.0133,-0.0148,-0.0239,-0.0327,-0.0345,-0.0413,-0.0452,-0.0494,-0.0494,-0.0495,-0.0494,-0.065,-0.0511,-0.0511,-0.0511,-0.0511,0,-0.0013,0.0008,0.0001,0.0014,0.0049,0.0025,0.0053,0.004,0.0031,0.0057,-0.0022,-0.0004,-0.014,-0.0194,-0.03,-0.0392,-0.0395,-0.0483,-0.0501,-0.0486,-0.0484,-0.0632,-0.0727,-0.0512,-0.0512,-0.0511,-0.0511,0,0.0035,0.0029,0.0059,0.0064,0.0071,0.0093,0.0109,0.0131,0.0112,0.0145,0.0142,0.0096,0.0035,-0.0096,-0.0223,-0.0333,-0.0523,-0.0471,-0.0434,-0.0447,-0.0644,-0.0737,-0.0896,-0.0961,-0.0533,-0.0533,-0.0533,0,0.0061,0.0079,0.01,0.0126,0.013,0.0156,0.0181,0.017,0.0204,0.0222,0.0256,0.0213,0.0223,0.0039,-0.0164,-0.034,-0.05,-0.0464,-0.0503,-0.0648,-0.0766,-0.0837,-0.0886,-0.0499,-0.0499,-0.0499,-0.0498,0,0.0113,0.0116,0.0139,0.019,0.0222,0.0263,0.0302,0.0347,0.0354,0.0404,0.0481,0.0496,0.0327,0.0182,-0.0079,-0.0232,-0.0582,-0.0463,-0.0633,-0.0765,-0.0834,-0.0905,-0.0481,-0.0496,-0.0496,-0.0496,-0.0496,-0.0497,0.0154,0.0181,0.0213,0.0264,0.0307,0.0379,0.0442,0.0511,0.0603,0.0719,0.069,0.0771,0.0486,0.0151,-0.0092,-0.0542,-0.0556,-0.0677,-0.0779,-0.0838,-0.0904,-0.0461,-0.0485,-0.0485,-0.0486,-0.0486,-0.0486,0,0.0211,0.024,0.0289,0.0357,0.0425,0.0431,0.0537,0.0628,0.0785,0.0902,0.0999,0.0918,0.0563,0.0149,-0.0447,-0.0783,-0.0931,-0.0988,-0.1109,-0.1144,-0.0765,-0.0767,-0.0828,-0.0828,-0.0828,-0.0828,-0.0828,-0.0827,0.0245,0.0304,0.0328,0.0452,0.0508,0.0627,0.0705,0.0856,0.0979,0.1172,0.1249,0.1265,0.0933,-0.0168,-0.0932,-0.113,-0.1398,-0.1451,-0.1577,-0.1349,-0.1328,-0.1309,-0.1334,-0.1513,-0.1514,-0.1903,-0.1907,-0.191]}],[{"header":{"parameterUnit":"m.s-1","parameterCategory":2,"la1":30.2991,"la2":30.254,"lo1":-89.0895,"lo2":-89.0444,"dy":0.0017,"dx":0.0017,"nx":28,"ny":28,"refTime":"2025-12-15T09:00:00:Z","depth":"2","parameterNumber":2,"parameterNumberName":"U-component_of_CURRENTS"},"data":[0,0,0,0,0,0,0,0,0,0,0,0,0,0,0,0,0,0,0,0,0,0,0,0,0,0,0,0,0,0,0,0,0,0,0,0,0,0,0,0,0,0,0,0,0,0,0,0,0,0,0,0,0,0,0,0,0,0,0.1442,0.1443,0,0.1441,0.144,0.144,0.142,0.142,0.142,0.142,0.1372,0.137,0.1369,0,0,0,0,0,0,0,0,0,0,0,0,0,0.1381,0.1382,0.1442,0.1443,0.1443,0.1441,0.144,0.144,0.142,0.142,0.142,0.142,0.1372,0.1371,0.1369,0,0,0,0,0,0,0,0,0,0,0,0,0,0.1392,0.1382,0.1442,0.1437,0.1436,0.1441,0.144,0.144,0.142,0.142,0.142,0.142,0.1373,0.1371,0.1369,0.1359,0,0,0.1363,0.1362,0,0,0,0,0,0,0,0,0.1391,0.1393,0.1437,0.1437,0.1437,0.1435,0.1401,0.1412,0.142,0.1422,0.142,0.142,0.1392,0.1388,0.1382,0.1357,0.1355,0.1363,0.1362,0.1361,0.1361,0,0,0,0,0,0,0,0.139,0.1393,0.1437,0.1438,0.1438,0.1418,0.1419,0.1403,0.1403,0.1421,0.1421,0.1428,0.139,0.1384,0.1381,0.1354,0.1363,0.1362,0.136,0.136,0.1354,0.1355,0,0,0,0,0,0,0.1403,0.1393,0.1437,0.1437,0.1419,0.142,0.1421,0.1432,0.1404,0.1401,0.1429,0.1428,0.1387,0.1383,0.1379,0.1404,0.1361,0.1359,0.1358,0.1353,0.1354,0.1355,0,0,0,0,0,0,0.1402,0.1407,0.1437,0.1418,0.1421,0.1422,0.1433,0.1432,0.1434,0.1411,0.1406,0.1434,0.1387,0.1381,0.1376,0.14,0.1359,0.1357,0.1352,0.1354,0.1355,0.143,0,0,0,0,0,0,0.14,0.1407,0.1414,0.142,0.1423,0.1452,0.1434,0.1432,0.1441,0.1439,0.1414,0.1409,0.1386,0.1379,0.1374,0.1397,0.1356,0.1351,0.1353,0.1354,0.1426,0.1434,0.144,0,0,0,0,0,0.1398,0.1409,0.1414,0.142,0.1435,0.1454,0.1454,0.1449,0.1441,0.1449,0.1431,0.141,0.1387,0.1378,0.1372,0.1395,0.135,0.1352,0.1354,0.1423,0.1432,0.144,0,0,0,0,0,0,0.1379,0.1409,0.1415,0.1433,0.145,0.1453,0.1457,0.1457,0.1449,0.1445,0.1417,0.1411,0.1417,0.1395,0.1385,0.1399,0.1367,0.1368,0.1421,0.1429,0.1436,0.1444,0.1354,0,0,0,0,0,0.1382,0.1402,0.1426,0.144,0.1452,0.1457,0.1462,0.1465,0.1462,0.1459,0.1444,0.1427,0.142,0.1416,0.1401,0.1406,0.1412,0.1419,0.1426,0.1432,0.1435,0.1468,0.1478,0.1362,0.1362,0.1362,0,0,0.1376,0.1398,0.1406,0.1438,0.1447,0.1469,0.1459,0.1476,0.1491,0.1454,0.1462,0.1449,0.1426,0.1434,0.1435,0.142,0.1473,0.1434,0.144,0.1439,0.1471,0.1483,0.1493,0.1364,0.1364,0.1363,0,0,0.1379,0.1398,0.1418,0.144,0.147,0.1478,0.149,0.1504,0.1509,0.1519,0.1499,0.1505,0.1485,0.1483,0.1477,0.1513,0.1507,0.151,0.1553,0.1586,0.1596,0.1605,0.165,0.1663,0.1515,0.1515,0.1515,0,0.1369,0.1402,0.1425,0.1453,0.1471,0.1487,0.1511,0.1522,0.1532,0.1542,0.153,0.1529,0.1511,0.153,0.1544,0.153,0.1551,0.1524,0.1597,0.1605,0.1613,0.1657,0.167,0.1519,0.1519,0.1518,0.1518,0,0.1392,0.1418,0.1433,0.1476,0.1499,0.1523,0.1552,0.157,0.1578,0.1589,0.1613,0.1598,0.1599,0.1601,0.1581,0.163,0.163,0.1603,0.1579,0.1629,0.1673,0.1685,0.1525,0.1523,0.1522,0.1521,0,0,0.1366,0.1434,0.1439,0.1463,0.1515,0.1534,0.1572,0.1609,0.1633,0.165,0.1683,0.1683,0.1685,0.1678,0.1666,0.1694,0.1775,0.1677,0.1677,0.1729,0.1868,0.1866,0.1878,0.1765,0.1767,0.1768,0.1885,0,0.1374,0.1425,0.1461,0.1503,0.1532,0.1567,0.16,0.1638,0.1664,0.17,0.1715,0.1734,0.1713,0.172,0.175,0.1762,0.1805,0.1746,0.1804,0.1806,0.1803,0.1891,0.1752,0.1843,0.1896,0.1898,0.1899,0,0.1385,0.1421,0.1463,0.1524,0.1539,0.1565,0.1622,0.1656,0.1717,0.1739,0.1777,0.1789,0.1839,0.1807,0.1881,0.1848,0.1868,0.1879,0.1883,0.186,0.1826,0.1795,0.1862,0.1919,0.1917,0.1916,0.1915,0,0.1356,0.1421,0.1452,0.1473,0.1543,0.1565,0.1602,0.1662,0.1698,0.1766,0.1804,0.1858,0.1894,0.1929,0.1965,0.193,0.2051,0.2,0.2025,0.2025,0.1905,0.1892,0.2062,0.2062,0.2062,0.2061,0.2061,0,0.1354,0.1379,0.1438,0.1456,0.1491,0.1549,0.1589,0.1636,0.1711,0.1763,0.1819,0.1878,0.1927,0.1999,0.2011,0.2076,0.2096,0.2059,0.2062,0.193,0.1918,0.1965,0.1952,0.2066,0.2065,0.2064,0.2063,0,0.1319,0.1361,0.1394,0.1459,0.1478,0.1501,0.1575,0.1611,0.1689,0.1764,0.1793,0.1916,0.2015,0.2071,0.2147,0.2142,0.219,0.2202,0.2057,0.2041,0.213,0.212,0.2244,0.2245,0.2246,0.2247,0.2248,0,0.1307,0.1321,0.1376,0.1393,0.1419,0.1461,0.1494,0.1582,0.1628,0.1784,0.1825,0.1963,0.2044,0.2183,0.2213,0.2269,0.2255,0.2156,0.2054,0.2162,0.2153,0.2141,0.2129,0.1933,0.1932,0.193,0.1929,0,0.1277,0.1291,0.1319,0.1352,0.1382,0.1419,0.1478,0.1515,0.1631,0.1708,0.1842,0.1927,0.2084,0.2102,0.2189,0.2188,0.2133,0.2125,0.229,0.1908,0.1878,0.1865,0.1863,0.1914,0.1916,0.1917,0.1917,0.1918,0.1242,0.1249,0.1284,0.1313,0.1346,0.1385,0.1404,0.1478,0.1556,0.1667,0.1785,0.1869,0.1948,0.2022,0.2004,0.2002,0.2123,0.202,0.202,0.2024,0.1966,0.1939,0.1978,0.1979,0.1981,0.1982,0.1983,0,0.1206,0.1225,0.1248,0.1285,0.1305,0.134,0.1399,0.1411,0.148,0.1591,0.1681,0.1633,0.1692,0.1761,0.1754,0.1786,0.1722,0.1706,0.1597,0.1616,0.1632,0.1548,0.1452,0.1449,0.1447,0.1445,0,0,0.1188,0.1199,0.1218,0.124,0.1264,0.1275,0.1299,0.1326,0.1387,0.1416,0.1457,0.161,0.1723,0.1547,0.156,0.15,0.1528,0.145,0.1889,0.1781,0.1793,0.1846,0.1744,0,0,0,0,0]},{"header":{"parameterUnit":"m.s-1","parameterCategory":2,"la1":30.2991,"la2":30.254,"lo1":-89.0895,"lo2":-89.0444,"dy":0.0017,"dx":0.0017,"nx":28,"ny":28,"refTime":"2025-12-15T09:00:00:Z","depth":"2","parameterNumber":3,"parameterNumberName":"V-component_of_CURRENTS"},"data":[0,0,0,0,0,0,0,0,0,0,0,0,0,0,0,0,0,0,0,0,0,0,0,0,0,0,0,0,0,0,0,0,0,0,0,0,0,0,0,0,0,0,0,0,0,0,0,0,0,0,0,0,0,0,0,0,0,0,-0.0307,-0.0307,0,-0.0317,-0.0317,-0.0317,-0.0324,-0.0324,-0.0325,-0.0325,-0.0337,-0.0337,-0.0337,0,0,0,0,0,0,0,0,0,0,0,0,0,-0.0268,-0.0269,-0.0307,-0.0307,-0.0308,-0.0317,-0.0317,-0.0317,-0.0324,-0.0324,-0.0325,-0.0325,-0.0337,-0.0337,-0.0337,0,0,0,0,0,0,0,0,0,0,0,0,0,-0.028,-0.0269,-0.0307,-0.0314,-0.0315,-0.0317,-0.0317,-0.0317,-0.0324,-0.0324,-0.0325,-0.0325,-0.0337,-0.0337,-0.0337,-0.0331,0,0,-0.0337,-0.0338,0,0,0,0,0,0,0,0,-0.028,-0.0282,-0.0313,-0.0313,-0.0314,-0.0321,-0.0308,-0.0322,-0.0324,-0.0318,-0.0325,-0.0325,-0.0333,-0.0333,-0.0332,-0.0331,-0.0332,-0.0337,-0.0338,-0.0338,-0.0338,0,0,0,0,0,0,0,-0.0279,-0.0281,-0.0309,-0.0313,-0.0314,-0.0307,-0.031,-0.031,-0.0322,-0.0319,-0.032,-0.0324,-0.0333,-0.0331,-0.0332,-0.0332,-0.0337,-0.0338,-0.0338,-0.0338,-0.0348,-0.0349,0,0,0,0,0,0,-0.0283,-0.028,-0.0309,-0.0309,-0.03,-0.0308,-0.031,-0.0317,-0.0322,-0.0324,-0.0324,-0.0324,-0.0331,-0.0332,-0.0332,-0.0334,-0.0338,-0.0338,-0.0338,-0.0348,-0.0348,-0.0349,0,0,0,0,0,0,-0.0282,-0.0285,-0.0308,-0.0296,-0.0299,-0.0309,-0.0316,-0.0317,-0.032,-0.0326,-0.0327,-0.0326,-0.0331,-0.0332,-0.0336,-0.0334,-0.0338,-0.0338,-0.0348,-0.0348,-0.0349,-0.0332,0,0,0,0,0,0,-0.0281,-0.0285,-0.0286,-0.0297,-0.03,-0.0307,-0.0316,-0.0317,-0.0322,-0.0323,-0.0328,-0.0329,-0.0332,-0.0336,-0.0336,-0.0335,-0.0338,-0.0348,-0.0348,-0.0348,-0.0332,-0.0331,-0.0331,0,0,0,0,0,-0.0279,-0.0274,-0.0286,-0.0289,-0.0303,-0.0306,-0.0307,-0.0314,-0.0322,-0.0318,-0.0326,-0.0329,-0.0339,-0.0336,-0.0336,-0.0335,-0.0348,-0.0348,-0.0348,-0.0332,-0.0331,-0.0331,0,0,0,0,0,0,-0.0247,-0.0275,-0.0288,-0.0289,-0.0299,-0.0308,-0.0303,-0.0314,-0.0317,-0.0319,-0.0328,-0.033,-0.0334,-0.0338,-0.0335,-0.0341,-0.0345,-0.0346,-0.0333,-0.0332,-0.0331,-0.0317,-0.0338,0,0,0,0,0,-0.0245,-0.0253,-0.0275,-0.0274,-0.028,-0.0294,-0.0296,-0.0304,-0.0312,-0.0313,-0.032,-0.0328,-0.0335,-0.0336,-0.0341,-0.0341,-0.0351,-0.0342,-0.0341,-0.0341,-0.0331,-0.0356,-0.0357,-0.035,-0.035,-0.035,0,0,-0.023,-0.0247,-0.025,-0.0269,-0.0276,-0.0275,-0.0295,-0.0297,-0.0295,-0.0314,-0.031,-0.0325,-0.0336,-0.0337,-0.0339,-0.0339,-0.0348,-0.0341,-0.0341,-0.0331,-0.0357,-0.0357,-0.0358,-0.035,-0.035,-0.035,0,0,-0.0201,-0.0223,-0.022,-0.023,-0.0247,-0.0257,-0.026,-0.0275,-0.0281,-0.0284,-0.0301,-0.0315,-0.032,-0.0329,-0.0334,-0.0333,-0.0346,-0.0339,-0.0321,-0.0346,-0.0346,-0.0347,-0.036,-0.0362,-0.0337,-0.0337,-0.0337,0,-0.0181,-0.0185,-0.0216,-0.0214,-0.0216,-0.0249,-0.0239,-0.0249,-0.0263,-0.0267,-0.028,-0.0301,-0.0314,-0.0318,-0.0322,-0.033,-0.0344,-0.0321,-0.0345,-0.0345,-0.0346,-0.0359,-0.0361,-0.0336,-0.0336,-0.0336,-0.0336,0,-0.0153,-0.0155,-0.0151,-0.0166,-0.0171,-0.0167,-0.0192,-0.0198,-0.0216,-0.0231,-0.0245,-0.027,-0.0281,-0.0295,-0.0307,-0.032,-0.0328,-0.0343,-0.0344,-0.0346,-0.0359,-0.0362,-0.0335,-0.0335,-0.0335,-0.0336,0,0,-0.0108,-0.0127,-0.0126,-0.0122,-0.0146,-0.0143,-0.0146,-0.0156,-0.0152,-0.0185,-0.0182,-0.0215,-0.024,-0.0248,-0.0274,-0.0298,-0.0323,-0.0321,-0.0323,-0.0329,-0.0372,-0.037,-0.0373,-0.0346,-0.0347,-0.0347,-0.0378,0,-0.0074,-0.0058,-0.008,-0.0058,-0.0051,-0.0082,-0.0077,-0.0094,-0.0114,-0.0122,-0.0168,-0.0176,-0.022,-0.0226,-0.0261,-0.0304,-0.033,-0.0313,-0.0373,-0.0374,-0.0369,-0.0376,-0.0364,-0.0391,-0.0381,-0.0381,-0.0382,0,-0.004,-0.0035,-0.001,-0.0006,-0.0005,0.0001,0.0001,-0.0001,-0.0031,-0.0047,-0.008,-0.0114,-0.0153,-0.0192,-0.0271,-0.026,-0.0312,-0.0351,-0.0354,-0.0357,-0.0377,-0.0388,-0.0396,-0.0386,-0.0386,-0.0386,-0.0385,0,0.0006,0.0016,0.0039,0.0039,0.0035,0.0043,0.0041,0.0022,0.003,-0.0002,0.0003,-0.0062,-0.0076,-0.0163,-0.0246,-0.0262,-0.0329,-0.0361,-0.0408,-0.0409,-0.0411,-0.041,-0.0417,-0.0417,-0.0417,-0.0417,-0.0417,0,0.0047,0.0067,0.0062,0.0075,0.0109,0.0087,0.0114,0.0102,0.0094,0.0118,0.0044,0.0059,-0.007,-0.0123,-0.0222,-0.0315,-0.0314,-0.04,-0.0417,-0.0405,-0.0403,-0.0409,-0.0408,-0.0418,-0.0418,-0.0418,-0.0417,0,0.009,0.0086,0.0115,0.0122,0.0129,0.015,0.0166,0.0187,0.0171,0.0201,0.0197,0.0152,0.0083,-0.0042,-0.0163,-0.0262,-0.0363,-0.0395,-0.0364,-0.0377,-0.0435,-0.0432,-0.0462,-0.0462,-0.0462,-0.0462,-0.0462,0,0.0113,0.013,0.0153,0.0177,0.0182,0.0208,0.0231,0.0224,0.0256,0.0271,0.0302,0.0251,0.023,0.0048,-0.0133,-0.0306,-0.0334,-0.0405,-0.044,-0.0426,-0.044,-0.0437,-0.0435,-0.0438,-0.0438,-0.0438,-0.0438,0,0.0159,0.0163,0.0186,0.0234,0.0265,0.0305,0.0343,0.0384,0.0392,0.0421,0.047,0.0454,0.0286,0.0122,-0.0117,-0.0241,-0.0384,-0.0409,-0.0404,-0.0425,-0.0406,-0.0419,-0.0417,-0.0437,-0.0437,-0.0437,-0.0437,-0.0437,0.0194,0.0219,0.025,0.0299,0.0341,0.0409,0.0458,0.0509,0.0574,0.063,0.0605,0.0587,0.038,0.0087,-0.0129,-0.0361,-0.0362,-0.0451,-0.0451,-0.0451,-0.0439,-0.0421,-0.0452,-0.0452,-0.0452,-0.0453,-0.0453,0,0.0242,0.0269,0.0315,0.0379,0.0441,0.0452,0.0541,0.0589,0.0685,0.0726,0.0751,0.0571,0.0374,0.0141,-0.0199,-0.0409,-0.0438,-0.0474,-0.0466,-0.0465,-0.0464,-0.0453,-0.0471,-0.0471,-0.0472,-0.0472,0,0,0.027,0.0323,0.0345,0.0456,0.0508,0.0595,0.0655,0.0728,0.0776,0.0815,0.0812,0.0754,0.0465,0.0222,-0.0072,-0.0265,-0.0317,-0.0309,-0.0275,-0.023,-0.0227,-0.0435,-0.0414,0,0,0,0,0]}],[{"header":{"parameterUnit":"m.s-1","parameterCategory":2,"la1":30.2991,"la2":30.254,"lo1":-89.0895,"lo2":-89.0444,"dy":0.0017,"dx":0.0017,"nx":28,"ny":28,"refTime":"2025-12-15T09:00:00:Z","depth":"4","parameterNumber":2,"parameterNumberName":"U-component_of_CURRENTS"},"data":[0,0,0,0,0,0,0,0,0,0,0,0,0,0,0,0,0,0,0,0,0,0,0,0,0,0,0,0,0,0,0,0,0,0,0,0,0,0,0,0,0,0,0,0,0,0,0,0,0,0,0,0,0,0,0,0,0,0,0.0795,0.0795,0,0.0866,0.0867,0.0868,0.0921,0.0922,0.0922,0.0923,0.0987,0.0988,0.099,0,0,0,0,0,0,0,0,0,0,0,0,0,0.0719,0.0721,0.0795,0.0795,0.0796,0.0866,0.0867,0.0868,0.0921,0.0922,0.0922,0.0923,0.0987,0.0988,0.099,0,0,0,0,0,0,0,0,0,0,0,0,0,0.0768,0.0721,0.0794,0.083,0.0834,0.0866,0.0867,0.0869,0.0921,0.0922,0.0922,0.0923,0.0986,0.0988,0.099,0.0991,0,0,0.0996,0.0997,0,0,0,0,0,0,0,0,0.0766,0.0771,0.0824,0.0828,0.0832,0.0885,0.0865,0.0909,0.0921,0.0889,0.0923,0.0923,0.0951,0.0956,0.097,0.0994,0.0996,0.0996,0.0998,0.0999,0.0999,0,0,0,0,0,0,0,0.0762,0.0768,0.0824,0.0825,0.083,0.0849,0.0856,0.0873,0.0916,0.0892,0.0896,0.0902,0.0954,0.0968,0.0971,0.0997,0.0996,0.0998,0.0999,0.1,0.1086,0.1087,0,0,0,0,0,0,0.075,0.0765,0.0821,0.0826,0.0799,0.0849,0.0858,0.0868,0.0917,0.0924,0.0902,0.0904,0.0964,0.0969,0.0974,0.1041,0.0999,0.1,0.1002,0.1085,0.1086,0.1087,0,0,0,0,0,0,0.0748,0.0755,0.0819,0.0796,0.0806,0.085,0.0861,0.0869,0.0905,0.0924,0.0932,0.0931,0.0964,0.0971,0.1013,0.1041,0.1001,0.1003,0.1084,0.1085,0.1087,0.1133,0,0,0,0,0,0,0.0746,0.0754,0.077,0.0796,0.0806,0.0851,0.0861,0.087,0.0906,0.0911,0.0951,0.0957,0.0965,0.101,0.1015,0.1043,0.1005,0.1082,0.1084,0.1086,0.113,0.1136,0.1141,0,0,0,0,0,0.0743,0.0758,0.077,0.0777,0.0823,0.0852,0.086,0.0893,0.0907,0.0927,0.0957,0.0957,0.1026,0.1013,0.1018,0.1048,0.1081,0.1084,0.1086,0.1128,0.1135,0.1141,0,0,0,0,0,0,0.0734,0.0765,0.0779,0.0803,0.0832,0.0861,0.0885,0.0904,0.0944,0.0956,0.0972,0.098,0.1026,0.1029,0.1014,0.1077,0.1053,0.1056,0.1083,0.1089,0.1095,0.1089,0.1006,0,0,0,0,0,0.0737,0.0759,0.0788,0.081,0.0825,0.0859,0.0879,0.0902,0.0933,0.0953,0.0981,0.1009,0.1036,0.1057,0.1078,0.1114,0.1116,0.1135,0.1141,0.1145,0.1145,0.1173,0.1181,0.1095,0.1095,0.1095,0,0,0.074,0.076,0.0773,0.081,0.0836,0.0864,0.0874,0.0911,0.0941,0.0952,0.1008,0.103,0.105,0.1093,0.1114,0.1103,0.1173,0.1148,0.1152,0.1149,0.1176,0.1185,0.1192,0.1097,0.1097,0.1096,0,0,0.0747,0.0774,0.0794,0.082,0.086,0.0881,0.0895,0.0937,0.0967,0.1015,0.1033,0.1072,0.1115,0.1138,0.1152,0.1198,0.1199,0.1208,0.1237,0.1265,0.1272,0.1279,0.1302,0.1309,0.1214,0.1214,0.1214,0,0.075,0.0779,0.0805,0.0831,0.0856,0.089,0.0918,0.0951,0.1004,0.1031,0.1039,0.1116,0.1134,0.1185,0.1206,0.1211,0.1226,0.1212,0.1272,0.1279,0.1284,0.1306,0.1314,0.1216,0.1216,0.1216,0.1216,0,0.0769,0.0801,0.0815,0.0859,0.0889,0.092,0.0961,0.1002,0.1039,0.1071,0.1136,0.1167,0.1211,0.1227,0.1234,0.1288,0.1286,0.1274,0.1255,0.1296,0.1316,0.1324,0.122,0.1219,0.1218,0.1218,0,0,0.0753,0.0817,0.0825,0.0851,0.0909,0.0932,0.0986,0.104,0.1079,0.1135,0.1187,0.1241,0.1264,0.128,0.1299,0.1327,0.1385,0.1325,0.1325,0.1346,0.1452,0.1387,0.1389,0.139,0.1392,0.1393,0.1454,0,0.0764,0.0811,0.0844,0.0895,0.0923,0.0971,0.1016,0.1071,0.1121,0.1179,0.1224,0.128,0.1283,0.1316,0.1345,0.1376,0.1407,0.137,0.141,0.1411,0.1347,0.1395,0.1397,0.1459,0.1461,0.1462,0.1463,0,0.0772,0.0804,0.0853,0.0916,0.0934,0.0972,0.1048,0.1095,0.1176,0.1217,0.1279,0.1315,0.138,0.1369,0.1442,0.1422,0.1443,0.1458,0.1461,0.1385,0.1359,0.1408,0.1477,0.1476,0.1475,0.1474,0.1473,0,0.0744,0.081,0.0848,0.0871,0.0947,0.0985,0.1032,0.1111,0.1157,0.125,0.1292,0.1364,0.1413,0.145,0.1494,0.1477,0.1564,0.1538,0.1497,0.1492,0.1511,0.1504,0.1583,0.1583,0.1583,0.1583,0.1583,0,0.0736,0.0768,0.0842,0.0864,0.0916,0.0976,0.104,0.1098,0.1183,0.1237,0.1314,0.1363,0.1438,0.1496,0.1517,0.1537,0.1585,0.1509,0.1506,0.1531,0.1525,0.1517,0.1509,0.1585,0.1585,0.1584,0.1584,0,0.0699,0.0748,0.0794,0.0876,0.0905,0.0944,0.1039,0.108,0.1171,0.1245,0.128,0.1384,0.146,0.1524,0.1592,0.1563,0.1588,0.1582,0.1618,0.1615,0.149,0.1483,0.1531,0.1529,0.1527,0.1526,0.1525,0,0.0685,0.0705,0.079,0.0819,0.086,0.0927,0.097,0.1066,0.1109,0.1245,0.1272,0.1385,0.1446,0.1493,0.1559,0.1602,0.1587,0.1585,0.1519,0.1494,0.1486,0.1482,0.1477,0.1523,0.1522,0.1522,0.1522,0,0.0651,0.0687,0.0725,0.0783,0.0832,0.0877,0.0948,0.0971,0.1082,0.1172,0.1246,0.1305,0.1391,0.1451,0.1505,0.1527,0.1575,0.1569,0.1571,0.1509,0.1485,0.1478,0.1475,0.1516,0.1517,0.1518,0.1518,0,0.0627,0.0638,0.0691,0.0739,0.0793,0.0818,0.0859,0.0919,0.0976,0.1124,0.1146,0.1272,0.1372,0.1414,0.146,0.1486,0.1458,0.1405,0.1415,0.1421,0.1359,0.131,0.1294,0,0,0,0,0,0.0599,0.0605,0.0642,0.0685,0.0735,0.0773,0.0842,0.0884,0.0988,0.1015,0.108,0.1159,0.1245,0.131,0.1316,0.1411,0.1459,0.1412,0.1399,0.1488,0.1494,0.1432,0,0,0,0,0,0,0.0576,0.0605,0.062,0.0634,0.0657,0.0702,0.0746,0.0814,0.0834,0.0948,0.1002,0.1098,0.1196,0.1237,0.1298,0.1319,0.1289,0.1494,0.1492,0.1484,0.149,0.1495,0.1433,0,0,0,0,0]},{"header":{"parameterUnit":"m.s-1","parameterCategory":2,"la1":30.2991,"la2":30.254,"lo1":-89.0895,"lo2":-89.0444,"dy":0.0017,"dx":0.0017,"nx":28,"ny":28,"refTime":"2025-12-15T09:00:00:Z","depth":"4","parameterNumber":3,"parameterNumberName":"V-component_of_CURRENTS"},"data":[0,0,0,0,0,0,0,0,0,0,0,0,0,0,0,0,0,0,0,0,0,0,0,0,0,0,0,0,0,0,0,0,0,0,0,0,0,0,0,0,0,0,0,0,0,0,0,0,0,0,0,0,0,0,0,0,0,0,-0.0006,-0.0006,0,-0.0043,-0.0043,-0.0043,-0.0064,-0.0065,-0.0065,-0.0065,-0.0108,-0.0109,-0.011,0,0,0,0,0,0,0,0,0,0,0,0,0,0.0031,0.003,-0.0006,-0.0006,-0.0007,-0.0043,-0.0043,-0.0044,-0.0064,-0.0065,-0.0065,-0.0065,-0.0107,-0.0109,-0.011,0,0,0,0,0,0,0,0,0,0,0,0,0,0.0006,0.003,-0.0006,-0.0021,-0.0023,-0.0042,-0.0043,-0.0044,-0.0064,-0.0065,-0.0065,-0.0065,-0.0107,-0.0109,-0.011,-0.0119,0,0,-0.0115,-0.0116,0,0,0,0,0,0,0,0,0.0008,0.0005,-0.0018,-0.002,-0.0022,-0.0049,-0.0046,-0.0069,-0.0064,-0.0049,-0.0065,-0.0065,-0.0088,-0.0092,-0.0099,-0.0121,-0.0123,-0.0115,-0.0116,-0.0117,-0.0118,0,0,0,0,0,0,0,0.0009,0.0006,-0.0021,-0.0019,-0.0021,-0.0032,-0.0035,-0.0051,-0.0068,-0.005,-0.0052,-0.0055,-0.0089,-0.0097,-0.01,-0.0124,-0.0115,-0.0117,-0.0118,-0.0119,-0.0165,-0.0165,0,0,0,0,0,0,0.0015,0.0008,-0.002,-0.0022,-0.0007,-0.0032,-0.0036,-0.004,-0.0068,-0.0072,-0.0055,-0.0056,-0.0094,-0.0098,-0.0102,-0.0118,-0.0117,-0.0119,-0.012,-0.0164,-0.0165,-0.0165,0,0,0,0,0,0,0.0016,0.0013,-0.0018,-0.0007,-0.0012,-0.0032,-0.0037,-0.0041,-0.0054,-0.0072,-0.0076,-0.0065,-0.0094,-0.0099,-0.0119,-0.0119,-0.0119,-0.0121,-0.0164,-0.0165,-0.0165,-0.0147,0,0,0,0,0,0,0.0017,0.0014,0.001,-0.0007,-0.0013,-0.0029,-0.0037,-0.0042,-0.0055,-0.0057,-0.0081,-0.0085,-0.0095,-0.0117,-0.0121,-0.0121,-0.0122,-0.0164,-0.0164,-0.0165,-0.0148,-0.0147,-0.0146,0,0,0,0,0,0.0019,0.0017,0.001,0.0007,-0.0016,-0.0029,-0.0033,-0.0048,-0.0056,-0.006,-0.0078,-0.0084,-0.0122,-0.0118,-0.0123,-0.0124,-0.0164,-0.0164,-0.0165,-0.0148,-0.0147,-0.0146,0,0,0,0,0,0,0.0032,0.0015,0.0007,-0.0,-0.0014,-0.0033,-0.0038,-0.005,-0.0069,-0.0072,-0.009,-0.0095,-0.0112,-0.0122,-0.0118,-0.0139,-0.0143,-0.0145,-0.0129,-0.0128,-0.0128,-0.0114,-0.0124,0,0,0,0,0,0.0033,0.0027,0.0009,0.0003,-0.0003,-0.0022,-0.0031,-0.0042,-0.0058,-0.0067,-0.0084,-0.0102,-0.0117,-0.0126,-0.0142,-0.0155,-0.0165,-0.0158,-0.0158,-0.0157,-0.015,-0.0167,-0.0167,-0.0167,-0.0167,-0.0167,0,0,0.0037,0.0026,0.0023,0.0006,-0.0007,-0.001,-0.0028,-0.004,-0.0043,-0.0069,-0.0081,-0.0102,-0.0121,-0.0135,-0.0143,-0.0144,-0.0164,-0.0158,-0.0157,-0.015,-0.0168,-0.0168,-0.0168,-0.0167,-0.0167,-0.0167,0,0,0.0046,0.0032,0.0032,0.0022,0.0005,-0.0006,-0.0009,-0.0031,-0.0041,-0.0057,-0.0075,-0.0096,-0.0121,-0.0132,-0.0142,-0.0148,-0.0162,-0.0156,-0.014,-0.0157,-0.0157,-0.0157,-0.0175,-0.0176,-0.0154,-0.0154,-0.0154,0,0.0052,0.0049,0.003,0.0029,0.0025,-0.0002,0.0001,-0.0013,-0.0038,-0.0045,-0.0057,-0.0096,-0.0116,-0.0129,-0.0133,-0.0146,-0.0159,-0.014,-0.0156,-0.0156,-0.0156,-0.0174,-0.0176,-0.0153,-0.0153,-0.0153,-0.0153,0,0.0062,0.006,0.006,0.0052,0.0045,0.0041,0.0023,0.0012,-0.0006,-0.0021,-0.0043,-0.0074,-0.0094,-0.0108,-0.0123,-0.0136,-0.0146,-0.0154,-0.0155,-0.0155,-0.0174,-0.0177,-0.0152,-0.0152,-0.0152,-0.0152,0,0,0.0074,0.0069,0.0069,0.0074,0.0057,0.0055,0.0049,0.0038,0.0037,0.0004,0.0,-0.0038,-0.006,-0.0072,-0.0097,-0.0115,-0.0136,-0.0135,-0.0136,-0.0147,-0.0177,-0.0185,-0.0189,-0.0149,-0.0149,-0.015,-0.019,0,0.0088,0.0098,0.009,0.0102,0.0106,0.0088,0.0089,0.0074,0.0055,0.0043,0.0006,-0.001,-0.0044,-0.0055,-0.008,-0.0121,-0.0141,-0.0124,-0.0179,-0.018,-0.0184,-0.0192,-0.015,-0.0192,-0.0193,-0.0193,-0.0194,0,0.0098,0.0106,0.0121,0.0132,0.0133,0.0136,0.0134,0.0131,0.0107,0.0092,0.0065,0.0035,0.0001,-0.0027,-0.0093,-0.0082,-0.0126,-0.016,-0.0162,-0.0175,-0.0193,-0.0192,-0.0198,-0.0198,-0.0198,-0.0197,-0.0197,0,0.0114,0.0127,0.0143,0.0145,0.0151,0.0157,0.0157,0.0143,0.0146,0.0121,0.012,0.0071,0.0049,-0.001,-0.0087,-0.009,-0.016,-0.0171,-0.0221,-0.0222,-0.0209,-0.0208,-0.0215,-0.0215,-0.0215,-0.0215,-0.0215,0,0.0128,0.0141,0.0153,0.0161,0.0184,0.0179,0.0196,0.0188,0.0183,0.0191,0.0146,0.0139,0.0052,-0.0001,-0.0073,-0.0155,-0.0151,-0.0217,-0.0232,-0.0202,-0.02,-0.0211,-0.021,-0.0216,-0.0216,-0.0216,-0.0216,0,0.0136,0.0145,0.0165,0.0182,0.0191,0.0204,0.0225,0.0236,0.0229,0.0239,0.0235,0.0187,0.0116,0.0027,-0.0072,-0.0132,-0.0211,-0.0242,-0.0201,-0.0214,-0.0265,-0.0262,-0.0296,-0.0296,-0.0297,-0.0297,-0.0298,0,0.014,0.0151,0.0179,0.0196,0.0204,0.0227,0.0245,0.0253,0.0268,0.0267,0.0275,0.0216,0.0171,0.0035,-0.007,-0.0205,-0.0227,-0.0266,-0.0268,-0.0261,-0.0273,-0.027,-0.0267,-0.0299,-0.0299,-0.0299,-0.0299,0,0.0144,0.0153,0.0171,0.0206,0.0231,0.0265,0.0292,0.0309,0.0321,0.0323,0.0312,0.024,0.0158,0.004,-0.0068,-0.0166,-0.0239,-0.0272,-0.0272,-0.0274,-0.0265,-0.0275,-0.0272,-0.0301,-0.0301,-0.03,-0.03,0,0.0144,0.0155,0.0178,0.021,0.0248,0.0285,0.0303,0.0327,0.0344,0.0349,0.0342,0.0257,0.0207,0.0059,-0.004,-0.0139,-0.0167,-0.0194,-0.0199,-0.0198,-0.0163,-0.0136,-0.0144,0,0,0,0,0,0.0139,0.0151,0.0181,0.0216,0.0257,0.0282,0.0328,0.0344,0.0363,0.0364,0.0357,0.0283,0.014,0.0077,-0.0023,-0.0069,-0.0198,-0.019,-0.0235,-0.0311,-0.0309,-0.0286,0,0,0,0,0,0,0.0133,0.0157,0.0174,0.0217,0.0245,0.0292,0.0323,0.0341,0.0345,0.0353,0.0281,0.0255,0.0114,0.0196,-0.0026,-0.0057,-0.0099,-0.0255,-0.0257,-0.0312,-0.031,-0.0309,-0.0285,0,0,0,0,0]}]]